Location: Lombard
(41.8800°N, 88.0080°W)
Time: 23:53:52
(UTC-05:00)

Transit 2A - Pass Details

Date: 14 February 2023
Orbit: 591 x 964 km, 66.7° (Epoch: 20 March)

Event Time Altitude Azimuth Distance (km) Brightness Sun altitude
Rises 21:10:58 0° 338° (NNW) 3,503 9.9 -42.2°
Enters shadow 21:13:44 - 352° (N) 2,734 9.1 -42.7°
Reaches altitude 10° 21:14:13 10° 356° (N) 2,615 - -42.8°
Maximum altitude 21:18:31 19° 40° (NE) 2,072 - -43.5°
Drops below altitude 10° 21:22:56 10° 84° (E) 2,694 - -44.2°
Sets 21:26:20 0° 102° (ESE) 3,645 - -44.8°
